This demonstration page uses our WeatherBlox Daily Observations layout. Learn more.

Left ArrowRight Arrow

39.08367, -84.50855

Hourly Observations for April 20, 2018

Temp ( °F °C ) Dew Point ( °F °C ) Humidity (%) Winds ( mph kmh ) Pressure ( in mb ) Visibility ( mi km ) Precip ( " mm )
12:53 am 00:53 Clear 44 6.7 29 -1.7 55 55 NNW 8 13 30.37 1028 10 16 N/A
1:53 am 01:53 Clear 42 5.6 30 -1.1 62 62 N 5 7 30.38 1029 10 16 N/A
2:53 am 02:53 Clear 40 4.4 30 -1.1 68 68 NNE 5 7 30.39 1029 10 16 N/A
3:53 am 03:53 Clear 39 3.9 30 -1.1 70 70 N N/A 30.40 1030 10 16 N/A
4:53 am 04:53 Clear 36 2.2 30 -1.1 79 79 NNW 3 6 30.42 1030 10 16 N/A
5:53 am 05:53 Clear 35 1.7 29 -1.7 78 78 NE 3 6 30.43 1031 10 16 N/A
6:53 am 06:53 Clear 34 1.1 29 -1.7 82 82 N 5 7 30.45 1031 10 16 N/A
7:53 am 07:53 Sunny 37 2.8 30 -1.1 76 76 NNE 3 6 30.47 1032 10 16 N/A
8:53 am 08:53 Sunny 42 5.6 33 0.6 71 71 ENE 6 9 30.50 1033 10 16 N/A
9:53 am 09:53 Sunny 45 7.2 32 undefined 61 61 E 5 7 30.51 1033 10 16 N/A
10:53 am 10:53 Sunny 49 9.4 31 -0.6 50 50 ENE 7 11 30.51 1033 10 16 N/A
11:53 am 11:53 Sunny 51 10.6 28 -2.2 41 41 N N/A 30.50 1033 10 16 N/A
12:53 pm 12:53 Sunny 53 11.7 26 -3.3 35 35 VRB 5 7 30.49 1033 10 16 N/A
1:53 pm 13:53 Sunny 55 12.8 30 -1.1 38 38 E 7 11 30.48 1032 10 16 N/A
2:53 pm 14:53 Sunny 58 14.4 28 -2.2 32 32 N N/A 30.46 1031 10 16 N/A
3:53 pm 15:53 Sunny 60 15.6 27 -2.8 28 28 VRB 3 6 30.44 1031 10 16 N/A
4:53 pm 16:53 Sunny 61 16.1 30 -1.1 31 31 ENE 12 19 30.42 1030 10 16 N/A
5:53 pm 17:53 Sunny 61 16.1 30 -1.1 31 31 NNE 7 11 30.42 1030 10 16 N/A
6:53 pm 18:53 Sunny 59 15 28 -2.2 31 31 NNE 5 7 30.42 1030 10 16 N/A
7:53 pm 19:53 Sunny 55 12.8 30 -1.1 38 38 E 5 7 30.41 1030 10 16 N/A
8:53 pm 20:53 Clear 51 10.6 32 undefined 48 48 N N/A 30.42 1030 10 16 N/A
9:53 pm 21:53 Clear 46 7.8 38 3.3 73 73 N N/A 30.42 1030 10 16 N/A
10:53 pm 22:53 Clear 44 6.7 37 2.8 76 76 N N/A 30.43 1031 10 16 N/A
11:53 pm 23:53 Clear 42 5.6 38 3.3 85 85 N N/A 30.42 1030 10 16 N/A

Powered by AerisWeather